Regional Weather Roundup
Issued by NWS

Home | Current Version | Previous Version | Text Only | Print | Product List | Glossary On
Versions: 1 2 3 4 5 6 7 8 9 10 11 12 13 14 15 16 17 18 19 20 21 22 23 24 25 26 27 28 29 30 31 32 33 34 35 36 37 38 39 40 41 42 43 44 45 46 47 48 49 50
000
ASUS43 KMKX 270310
RWRWI

WISCONSIN REGIONAL WEATHER ROUNDUP
NATIONAL WEATHER SERVICE MILWAUKEE/SULLIVAN WI
900 PM CST THU FEB 26 2015

NOTE: "FAIR" INDICATES FEW OR NO CLOUDS BELOW 12,000 FEET WITH NO
SIGNIFICANT WEATHER AND/OR OBSTRUCTIONS TO VISIBILITY.

WIZ001-002-006>008-014>016-023>028-270400-
NORTHWEST WISCONSIN

CITY           SKY/WX    TMP DP  RH WIND       PRES   REMARKS
SUPERIOR ARPT  CLEAR      4 -11  50 W8G16     30.44S WCI  -9
ASHLAND        CLEAR      0 -12  57 SW6       30.40R WCI -12
HAYWARD        CLEAR     -8 -16  67 CALM      30.38R
SIREN          CLEAR      1 -10  59 W7        30.44R WCI -12
CUMBERLAND     CLEAR     -2 -13  60 W8        30.39S WCI -17
RICE LAKE      CLEAR      0 -11  59 W5        30.42S WCI -10
CHETEK         CLEAR      1 -10  59 MISG      30.41S
LADYSMITH      CLEAR     -2 -12  63 W6        30.39S WCI -14
EAU CLAIRE     CLEAR      1 -11  57 W3        30.43R
MENOMONIE      CLEAR      3  -9  56 W5        30.44S WCI  -7
NEW RICHMOND   CLEAR     -3 -11  67 W6        30.45S WCI -15
OSCEOLA        CLEAR      2  -9  61 W6        30.49R WCI  -9
$$

WIZ003>005-009-010-017-018-270400-
NORTH CENTRAL WISCONSIN

CITY           SKY/WX    TMP DP  RH WIND       PRES   REMARKS
MANITOWISH WTR CLEAR     -9 -17  70 CALM      30.29S
ARBOR VITAE    CLEAR      0 -10  62 CALM      30.29S
WOODRUFF       CLEAR      0 -10  62 CALM      30.29S
RHINELANDER    CLEAR     -1 -12  59 NW5       30.29R WCI -11
EAGLE RIVER    CLEAR    -11 -19  70 CALM      30.28R
LAND O LAKES   CLEAR    -16 -21  76 CALM      30.28S
PHILLIPS       CLEAR     -7 -15  71 CALM      30.33R
TOMAHAWK       CLEAR    -12 -18  74 CALM      30.32R
MEDFORD        CLEAR     -1 -11  62 W6        30.33R WCI -13
MERRILL        CLEAR     -5 -13  68 CALM      30.33R
$$

WIZ029-030-035-036-043>047-270400-
CENTRAL WISCONSIN

CITY           SKY/WX    TMP DP  RH WIND       PRES   REMARKS
WAUSAU         CLEAR      2  -9  60 NW6       30.34R WCI  -9
MOSINEE        CLEAR      3  -8  60 NW7       30.35R WCI  -9
MARSHFIELD     CLEAR      1 -11  57 W6        30.36R WCI -10
STEVENS POINT  CLEAR      1  -9  60 W5        30.37R WCI  -8
WAUPACA        CLEAR      7  -6  55 W5        30.39R WCI  -2
WAUTOMA        CLEAR      1 -10  60 NW6       30.40R WCI -10
WISC RAPIDS    CLEAR      2 -11  54 W7        30.40R WCI -11
CAMP DOUGLAS   NOT AVBL
$$

WIZ011>013-019>022-031-037>040-048>050-270400-
NORTHEAST WISCONSIN

CITY           SKY/WX    TMP DP  RH WIND       PRES   REMARKS
ANTIGO         CLEAR     -2 -11  65 NW5       30.30R WCI -12
SHAWANO        CLEAR      7  -9  48 CALM      30.37R
OCONTO         CLEAR     -5  -8  84 CALM      30.38R
STURGEON BAY   CLEAR      0  -9  65 SW3       30.37R
GREEN BAY      CLEAR      4  -3  73 W6        30.37R WCI  -7
MANITOWOC      CLEAR      0  -6  76 CALM      30.39R
APPLETON       CLEAR      3 -11  51 W8        30.36R WCI -10
CLINTONVILLE   CLEAR      3  -9  55 W5        30.36S WCI  -6
OSHKOSH        CLEAR      6  -6  57 W8        30.38R WCI  -7
$$

WIZ032>034-041-042-053>061-270400-
SOUTHWEST WISCONSIN

CITY           SKY/WX    TMP DP  RH WIND       PRES   REMARKS
LA CROSSE      CLEAR      2  -8  63 CALM      30.47R
SPARTA         CLEAR     -6 -11  78 CALM      30.45R
VIROQUA        CLEAR      0  -8  67 NW6       30.39R WCI -11
BOSCOBEL       CLEAR      0  -8  69 CALM      30.47R
PRAIRIE DU CHI CLEAR      2  -9  59 W5        30.49R WCI  -8
PLATTEVILLE    CLEAR     -1  -9  68 W7        30.42R WCI -14
$$

WIZ056-057-062-063-064-067-068-270400-
SOUTH CENTRAL WISCONSIN

CITY           SKY/WX    TMP DP  RH WIND       PRES   REMARKS
REEDSBURG      CLEAR      4  -7  60 W6        30.41S WCI  -7
BARABOO/DELLS  CLEAR      2  -8  62 W3        30.40R
LONE ROCK      CLEAR      6  -7  54 NW8       30.45R WCI  -7
MINERAL POINT  CLEAR      5  -8  56 NW7       30.39S WCI  -7
MADISON        CLEAR      2  -8  63 NW3       30.40R
MIDDLETON      CLEAR      1  -8  63 NW3       30.40S
WATERTOWN      CLEAR     -3  -8  78 CALM      30.39R
MONROE         CLEAR      7  -4  61 NW7       30.38R WCI  -5
JANESVILLE     CLEAR      1  -6  71 CALM      30.40R
$$

WIZ051-052-058>065-066-070>072-270400-
SOUTHEAST WISCONSIN

CITY           SKY/WX    TMP DP  RH WIND       PRES   REMARKS
MILWAUKEE      CLEAR      8  -6  52 NW3       30.40R
WAUKESHA       CLEAR      0  -8  71 CALM      30.39R
MILWAUKEE/TIMM CLEAR      5  -6  61 CALM      30.41R
RACINE         CLEAR      6  -7  54 NW6       30.41R WCI  -4
BURLINGTON     CLEAR     -5 -11  73 S3        30.40R
KENOSHA        CLEAR      5  -7  57 NW5       30.39R WCI  -4
FOND DU LAC    CLEAR      5  -7  57 W9        30.38R WCI  -9
SHEBOYGAN      CLEAR      1  -6  72 W5        30.38R WCI  -9
WEST BEND      CLEAR      1  -6  71 CALM      30.38R
JUNEAU         CLEAR      4  -6  61 NW3       30.39R
$$

LSZ147-162-270400-
LAKE SUPERIOR

STATION/POSITION TIME  TEMP    WIND        PRES    WAVE
                       AIR SEA DIR/SP/G            HT/PER
                 (UTC) (F)     (DEG/KT/KT) (MB)    (FT/S)
DEVILS ISLAND    0300    8     300/ 14/ 17 1031.0R
PORT WING        0200   10     290/ 14/ 19 1029.5S
SAXON HARBOR     0200    2      CALM  /  7 1029.1
$$

LMZ867-665-643>646-270400-
LAKE MICHIGAN

STATION/POSITION TIME  TEMP    WIND        PRES    WAVE
                       AIR SEA DIR/SP/G            HT/PER
                 (UTC) (F)     (DEG/KT/KT) (MB)    (FT/S)
NORTHPORT PIER   0224    3     240/  3/  4 1028.1R
SISTER BAY       0128    2        CALM       N/A
KEWAUNEE LAKESHO 0200    2     290/  2/  4 1027.3R
SHEBOYGAN LAKESH 0300    8     260/  6/  6 1030.9R
PORT WASHINGTON  0200    8     300/  3/  4 1029.8
MILWAUKEE LAKESH 0200   10     320/  4/  7   N/A
KENOSHA   LAKESH 0300    7     310/  6/ 10 1029.5R
$$

TC  - TEMPERATURE IN CELSIUS
VSB - VISIBILITY IN STATUTE MILES
WCI - WIND CHILL INDEX
HX  - HEAT INDEX



USA.gov is the U.S. government's official web portal to all federal, state and local government web resources and services.